Location: Rogalle
(42.8890°N, 1.1916°E)
Time: 00:55:49
(UTC+00:00)

Cosmos-2242 - Pass Details

Date: 13 December 2025
Orbit: 566 x 591 km, 82.5° (Epoch: 19 January)

Event Time Altitude Azimuth Distance (km) Brightness Sun altitude
Rises 17:02:39 0° 150° (SSE) 2,810 6.4 -7.5°
Reaches altitude 10° 17:05:18 10° 133° (SE) 1,917 5.4 -8.0°
Maximum altitude 17:08:21 20° 87° (E) 1,404 4.3 -8.5°
Drops below altitude 10° 17:11:25 10° 41° (NE) 1,930 5.0 -9.0°
Enters shadow 17:11:53 - 37° (NE) 2,072 5.2 -9.1°
